N6ZQK Weather Reports


Display with metric or nautical units.
time (UTC)temp
F
wind
direction
speed
MPH
gust
MPH
rain 1hr
in
rain 24hr
in
rain mn
in
humidity
%
barometer
mb
20260905153003 55 110 1.0 6.0 0.00 0.06 0.00 79 1013.6
20260905152403 55 108 2.0 7.0 0.00 0.06 0.00 79 1013.6
20260905151803 54 100 2.0 7.0 0.00 0.06 0.00 79 1013.9
20260905151203 54 101 2.0 6.0 0.00 0.07 0.00 80 1013.8
20260905150603 54 106 2.0 7.0 0.00 0.07 0.00 79 1013.8
20260905150003 54 104 2.0 7.0 0.00 0.08 0.00 80 1013.4
20260905145403 53 93 2.0 7.0 0.00 0.09 0.00 79 1013.5
20260905145017 53 95 3.0 9.0 0.00 0.09 0.00 80 1013.5
20260905144203 53 105 3.0 9.0 0.00 0.10 0.00 80 1013.6
20260905143603 53 105 2.0 9.0 0.00 0.12 0.00 80 1013.6
20260905143003 53 100 3.0 10.0 0.00 0.12 0.00 80 1013.6
20260905142403 53 102 3.0 9.0 0.00 0.12 0.00 79 1013.5
20260905141803 53 98 3.0 9.0 0.00 0.12 0.00 79 1013.5
20260905141203 53 98 3.0 9.0 0.00 0.12 0.00 79 1013.4
20260905140603 53 108 3.0 9.0 0.00 0.12 0.00 79 1013.3
20260905140004 53 101 3.0 9.0 0.00 0.12 0.00 79 1012.9
20260905135403 53 100 3.0 7.0 0.00 0.12 0.00 79 1012.9
20260905135018 53 101 3.0 7.0 0.00 0.12 0.00 79 1012.9
20260905134418 53 98 4.0 10.0 0.00 0.13 0.00 78 1012.9
20260905133817 53 98 3.0 10.0 0.00 0.13 0.00 79 1012.9
20260905133003 53 99 3.0 8.0 0.00 0.13 0.00 79 1012.9
20260905132403 53 99 4.0 9.0 0.00 0.14 0.00 78 1012.8
20260905131803 53 101 3.0 9.0 0.00 0.15 0.00 78 1012.7
20260905131203 53 100 3.0 9.0 0.00 0.15 0.00 78 1012.6
20260905130603 53 95 3.0 7.0 0.00 0.16 0.00 78 1012.6
20260905130003 53 97 3.0 10.0 0.00 0.16 0.00 79 1012.6
20260905125619 53 98 4.0 10.0 0.00 0.16 0.00 79 1012.6
20260905124803 53 96 4.0 9.0 0.00 0.20 0.00 79 1012.6
20260905124203 52 99 4.0 9.0 0.00 0.20 0.00 78 1012.6
20260905123603 52 98 4.0 9.0 0.00 0.20 0.00 79 1012.6
20260905123003 52 97 4.0 9.0 0.00 0.20 0.00 79 1012.7
20260905122403 52 101 4.0 10.0 0.00 0.21 0.00 79 1012.7
20260905121803 53 100 4.0 10.0 0.00 0.21 0.00 80 1012.6
20260905121203 53 98 4.0 10.0 0.00 0.21 0.00 79 1012.6
20260905120603 53 96 5.0 12.0 0.00 0.22 0.00 79 1012.6
20260905120003 53 102 5.0 13.0 0.00 0.22 0.00 80 1012.5
20260905115403 53 105 5.0 13.0 0.00 0.23 0.00 80 1012.4
20260905114803 53 102 4.0 12.0 0.00 0.23 0.00 79 1012.4
20260905114417 53 98 4.0 12.0 0.00 0.23 0.00 79 1012.4
20260905113603 53 98 4.0 13.0 0.00 0.24 0.00 79 1012.4
20260905113003 53 98 4.0 10.0 0.00 0.25 0.00 79 1012.4
20260905112403 53 99 4.0 9.0 0.00 0.25 0.00 79 1012.5
20260905111803 53 95 3.0 9.0 0.00 0.26 0.00 79 1012.5
20260905111203 53 93 3.0 9.0 0.00 0.28 0.00 79 1012.6
20260905110603 53 98 4.0 9.0 0.00 0.29 0.00 79 1012.7
20260905110004 53 99 4.0 10.0 0.00 0.30 0.00 79 1012.8
20260905105403 53 98 4.0 10.0 0.00 0.33 0.00 79 1012.7
20260905104803 53 99 3.0 7.0 0.00 0.37 0.00 79 1012.8
20260905104203 53 105 3.0 9.0 0.00 0.39 0.00 80 1012.7
20260905103603 53 100 3.0 9.0 0.00 0.41 0.00 79 1012.8
20260905103003 53 99 3.0 9.0 0.00 0.43 0.00 78 1012.8
20260905102403 53 96 3.0 10.0 0.00 0.45 0.00 79 1012.8
20260905101803 53 93 3.0 10.0 0.00 0.49 0.00 79 1013.0
20260905101203 53 92 2.0 9.0 0.00 0.53 0.00 79 1013.0
20260905100603 53 96 3.0 6.0 0.00 0.56 0.00 80 1013.0
20260905100003 53 101 2.0 6.0 0.00 0.59 0.00 80 1013.3
20260905095403 53 91 2.0 7.0 0.00 0.60 0.00 80 1013.2
20260905094803 53 89 3.0 9.0 0.00 0.61 0.00 81 1013.2
20260905094203 53 93 3.0 9.0 0.00 0.62 0.00 81 1013.3
20260905093603 53 93 3.0 7.0 0.00 0.62 0.00 81 1013.3
20260905093003 53 101 3.0 7.0 0.00 0.62 0.00 81 1013.3
20260905092403 53 100 3.0 10.0 0.00 0.63 0.00 82 1013.2
20260905092017 53 97 3.0 12.0 0.00 0.63 0.00 82 1013.2
20260905091203 53 98 4.0 12.0 0.00 0.64 0.00 82 1013.1
20260905090603 53 100 4.0 12.0 0.00 0.64 0.00 82 1013.1
20260905090003 53 103 4.0 13.0 0.00 0.64 0.00 83 1013.2
20260905085403 53 103 4.0 13.0 0.00 0.64 0.00 82 1013.2
20260905085019 53 101 4.0 13.0 0.00 0.64 0.00 83 1013.2
20260905084203 53 95 5.0 12.0 0.00 0.64 0.00 82 1013.3
20260905083817 53 96 6.0 13.0 0.00 0.64 0.00 83 1013.2
20260905083003 53 102 5.0 15.0 0.00 0.64 0.00 83 1013.2
20260905082403 53 100 6.0 16.0 0.00 0.64 0.00 83 1013.2
20260905081804 53 99 6.0 14.0 0.00 0.66 0.00 83 1013.2
20260905081203 53 106 4.0 12.0 0.00 0.66 0.00 84 1013.1
20260905080603 53 103 5.0 13.0 0.00 0.66 0.00 84 1013.1
20260905080003 53 104 6.0 13.0 0.00 0.66 0.00 84 1013.5
20260905075403 53 105 5.0 13.0 0.00 0.67 0.00 84 1013.5
20260905074803 53 99 5.0 13.0 0.00 0.67 0.00 84 1013.5
20260905074203 53 104 4.0 13.0 0.00 0.67 0.00 84 1013.4
20260905073603 53 109 4.0 12.0 0.00 0.67 0.00 85 1013.5
20260905073003 53 101 4.0 12.0 0.00 0.67 0.00 85 1013.5
20260905072403 53 94 4.0 14.0 0.00 0.68 0.00 86 1013.5
20260905071804 53 90 4.0 14.0 0.00 0.68 0.00 85 1013.5
20260905071203 53 91 3.0 9.0 0.00 0.69 0.00 85 1013.6
20260905070603 54 95 5.0 10.0 0.00 0.70 0.00 85 1013.5
20260905070004 54 97 3.0 10.0 0.00 0.72 0.00 85 1013.7
20260905065403 54 101 3.0 6.0 0.00 0.74 0.74 84 1013.5
20260905064803 54 102 2.0 6.0 0.00 0.75 0.74 84 1013.5
20260905064203 54 108 2.0 9.0 0.00 0.75 0.74 84 1013.5
20260905063603 54 117 2.0 7.0 0.00 0.76 0.74 83 1013.5
20260905063003 54 124 2.0 6.0 0.00 0.76 0.74 83 1013.5
20260905062403 54 130 2.0 6.0 0.00 0.77 0.74 83 1013.5
20260905061803 54 139 2.0 7.0 0.00 0.77 0.74 83 1013.6
20260905061203 53 150 2.0 7.0 0.00 0.77 0.74 82 1013.9
20260905060604 53 157 2.0 5.0 0.00 0.77 0.74 83 1013.9
20260905060003 54 158 1.0 4.0 0.00 0.77 0.74 81 1014.0
20260905055403 54 158 1.0 4.0 0.00 0.77 0.74 81 1014.0
20260905055017 54 158 1.0 4.0 0.00 0.77 0.74 81 1014.0
20260905054417 54 158 0.0 3.0 0.00 0.78 0.74 81 1014.0
20260905053603 54 198 1.0 4.0 0.00 0.78 0.74 81 1014.0
20260905053003 54 227 1.0 3.0 0.00 0.79 0.74 79 1014.2
20260905052403 54 233 0.0 3.0 0.00 0.79 0.74 79 1014.1
20260905051803 54 233 0.0 3.0 0.00 0.79 0.74 79 1014.2
20260905051417 54 233 0.0 2.0 0.00 0.79 0.74 79 1014.2
20260905050603 54 233 0.0 2.0 0.00 0.79 0.74 80 1014.2
20260905050003 54 233 0.0 3.0 0.00 0.79 0.74 79 1014.4
20260905045403 54 233 0.0 3.0 0.00 0.79 0.74 78 1014.4
20260905045017 54 233 0.0 3.0 0.00 0.79 0.74 79 1014.1
20260905044203 55 233 0.0 3.0 0.00 0.79 0.74 77 1014.0
20260905043818 55 233 0.0 3.0 0.00 0.79 0.74 77 1014.0
20260905043003 55 234 0.0 3.0 0.00 0.79 0.74 78 1014.0
20260905042403 55 234 0.0 2.0 0.00 0.79 0.74 77 1014.0
20260905041803 55 234 0.0 2.0 0.00 0.79 0.74 78 1013.9
20260905041203 55 234 0.0 2.0 0.00 0.79 0.74 78 1013.7
20260905040603 55 234 0.0 2.0 0.00 0.79 0.74 78 1013.7
20260905040003 55 234 0.0 2.0 0.00 0.79 0.74 77 1013.7
20260905035617 55 234 0.0 2.0 0.00 0.79 0.74 77 1013.7
20260905034803 56 234 0.0 2.0 0.00 0.79 0.74 76 1013.5
20260905034203 56 234 0.0 2.0 0.00 0.79 0.74 76 1013.5
20260905033603 56 234 0.0 2.0 0.00 0.79 0.74 77 1013.4
20260905033003 56 234 0.0 2.0 0.00 0.79 0.74 76 1013.3
20260905032403 56 234 0.0 2.0 0.00 0.79 0.74 76 1013.2
20260905031803 57 234 0.0 2.0 0.00 0.79 0.74 75 1013.0
20260905031203 57 234 1.0 3.0 0.00 0.79 0.74 75 1013.0
20260905030603 57 234 0.0 3.0 0.00 0.79 0.74 74 1012.9
20260905030003 57 234 0.0 3.0 0.00 0.79 0.74 73 1012.9
20260905025404 58 234 0.0 3.0 0.00 0.79 0.74 72 1012.9
20260905024803 58 234 0.0 2.0 0.00 0.79 0.74 71 1012.9
20260905024203 58 234 0.0 3.0 0.00 0.79 0.74 71 1012.8
20260905023817 59 233 0.0 3.0 0.00 0.79 0.74 72 1012.7
20260905023003 59 231 1.0 4.0 0.00 0.79 0.74 71 1012.6
20260905022403 60 230 1.0 4.0 0.00 0.79 0.74 71 1012.6
20260905021803 60 230 1.0 3.0 0.00 0.79 0.74 70 1012.6
20260905021203 60 230 0.0 3.0 0.00 0.79 0.74 70 1012.6
20260905020603 60 230 0.0 2.0 0.00 0.79 0.74 70 1012.4
20260905020217 61 230 0.0 2.0 0.00 0.79 0.74 69 1012.3
20260905015403 61 230 1.0 5.0 0.00 0.79 0.74 68 1012.3
20260905014803 62 230 1.0 5.0 0.00 0.79 0.74 67 1012.3
20260905014417 62 230 0.0 3.0 0.00 0.79 0.74 67 1012.3
20260905013603 62 212 1.0 6.0 0.00 0.79 0.74 64 1012.2
20260905013003 62 198 1.0 6.0 0.00 0.79 0.74 65 1012.2
20260905012403 62 205 2.0 5.0 0.00 0.79 0.74 57 1012.2
20260905012018 63 201 1.0 6.0 0.00 0.79 0.74 61 1011.9
20260905011203 63 155 1.0 4.0 0.00 0.79 0.74 59 1012.1
20260905010604 63 159 3.0 9.0 0.00 0.79 0.74 57 1012.1
20260905010003 62 172 2.0 9.0 0.00 0.79 0.74 58 1012.1
20260905005403 62 206 0.0 3.0 0.00 0.79 0.74 63 1011.9
20260905004803 62 206 1.0 4.0 0.00 0.79 0.74 56 1012.1
20260905004417 62 206 1.0 6.0 0.00 0.79 0.74 62 1012.0
20260905003603 62 205 1.0 5.0 0.00 0.79 0.74 67 1012.0
20260905003218 62 201 0.0 5.0 0.00 0.79 0.74 67 1012.0
20260905002403 62 192 0.0 3.0 0.00 0.79 0.74 67 1012.0
20260905001803 62 193 1.0 6.0 0.00 0.79 0.74 69 1012.0
20260905001203 63 210 2.0 6.0 0.00 0.79 0.74 65 1012.1
20260905000818 63 241 1.0 6.0 0.00 0.79 0.74 66 1012.2
20260905000003 63 227 1.0 6.0 0.00 0.79 0.74 64 1012.2
20260904235403 64 204 2.0 6.0 0.00 0.79 0.74 64 1012.1
20260904234803 64 195 1.0 5.0 0.00 0.79 0.74 63 1012.0
20260904234203 64 204 2.0 9.0 0.00 0.79 0.74 61 1012.0
20260904233603 64 235 2.0 8.0 0.00 0.79 0.74 64 1012.0
20260904233003 63 228 2.0 8.0 0.00 0.79 0.74 63 1012.2
20260904232403 63 211 2.0 7.0 0.00 0.79 0.74 60 1012.2
20260904231803 63 212 3.0 7.0 0.00 0.79 0.74 64 1012.3
20260904231203 63 247 4.0 12.0 0.00 0.79 0.74 65 1012.3
20260904230818 63 248 5.0 12.0 0.00 0.79 0.74 65 1012.3
20260904230217 63 230 4.0 12.0 0.00 0.79 0.74 64 1012.3
20260904225404 63 222 4.0 14.0 0.00 0.79 0.74 66 1012.2
20260904224803 63 234 2.0 7.0 0.00 0.79 0.74 68 1012.1
20260904224203 63 233 2.0 7.0 0.00 0.79 0.74 70 1012.1
20260904223818 63 211 2.0 9.0 0.00 0.79 0.74 69 1012.2
20260904223003 62 191 4.0 10.0 0.00 0.79 0.74 70 1012.1
20260904222617 62 182 3.0 12.0 0.00 0.79 0.74 70 1012.4
20260904221803 62 186 3.0 12.0 0.00 0.79 0.74 75 1012.4
20260904221418 62 209 2.0 10.0 0.00 0.79 0.74 75 1012.4
20260904220603 62 215 4.0 14.0 0.00 0.79 0.74 74 1012.4
20260904220003 62 233 4.0 14.0 0.00 0.79 0.74 73 1012.1
20260904215617 62 238 5.0 13.0 0.00 0.79 0.74 74 1012.1
20260904214803 62 211 3.0 13.0 0.00 0.79 0.74 76 1012.1
20260904214203 61 206 2.0 13.0 0.00 0.79 0.74 80 1012.3
20260904213603 61 220 3.0 10.0 0.00 0.79 0.74 78 1012.2
20260904213003 62 206 5.0 10.0 0.00 0.79 0.74 78 1012.0
20260904212403 61 200 5.0 12.0 0.00 0.79 0.74 79 1012.4
20260904212018 61 204 4.0 12.0 0.00 0.79 0.74 78 1012.3
20260904211203 61 178 4.0 10.0 0.00 0.79 0.74 78 1012.2
20260904210603 61 195 5.0 10.0 0.00 0.79 0.74 79 1012.3
20260904210003 61 207 3.0 10.0 0.00 0.79 0.74 83 1012.2
20260904205403 60 221 4.0 12.0 0.00 0.79 0.74 85 1012.2
20260904204803 60 206 4.0 12.0 0.00 0.79 0.74 83 1012.2
20260904204203 60 212 3.0 13.0 0.00 0.79 0.74 84 1012.2
20260904203603 59 197 2.0 7.0 0.00 0.79 0.74 84 1012.4
20260904203003 59 184 3.0 7.0 0.00 0.79 0.74 83 1012.5
20260904202403 59 177 4.0 8.0 0.00 0.79 0.74 82 1012.4
20260904201803 59 171 2.0 7.0 0.00 0.79 0.74 82 1012.5
20260904201203 58 152 1.0 6.0 0.00 0.79 0.74 83 1012.4
20260904200603 58 154 1.0 7.0 0.00 0.79 0.74 84 1012.4
20260904200218 58 144 2.0 10.0 0.00 0.79 0.74 84 1012.5
20260904195618 58 161 3.0 10.0 0.00 0.79 0.74 82 1012.4
20260904194803 58 161 4.0 9.0 0.00 0.79 0.74 84 1012.5
20260904194203 58 146 4.0 9.0 0.00 0.79 0.74 83 1012.6
20260904193817 58 149 4.0 10.0 0.00 0.79 0.74 82 1012.6
20260904193003 58 164 3.0 13.0 0.00 0.79 0.74 83 1012.7
20260904192403 57 155 3.0 13.0 0.00 0.79 0.74 86 1012.8
20260904191803 57 134 3.0 9.0 0.00 0.79 0.74 87 1012.9
20260904191203 56 117 3.0 9.0 0.00 0.79 0.74 89 1012.9
20260904190603 56 113 3.0 9.0 0.00 0.79 0.74 89 1012.9
20260904190004 56 134 2.0 6.0 0.00 0.79 0.74 90 1012.9
20260904185403 56 134 3.0 7.0 0.00 0.79 0.74 92 1012.9
20260904184803 55 133 4.0 9.0 0.00 0.79 0.74 90 1012.9
20260904184203 55 141 3.0 9.0 0.00 0.79 0.74 92 1012.9
20260904183603 55 172 1.0 6.0 0.00 0.79 0.74 93 1012.9
20260904183003 55 176 2.0 6.0 0.00 0.79 0.74 92 1012.9
20260904182403 55 176 1.0 5.0 0.00 0.79 0.74 93 1012.9
20260904181804 54 172 3.0 7.0 0.00 0.79 0.74 92 1013.1
20260904181203 54 174 4.0 9.0 0.00 0.79 0.74 92 1013.1
20260904180603 54 170 3.0 9.0 0.00 0.79 0.74 92 1013.0
20260904180003 54 157 2.0 9.0 0.00 0.79 0.74 93 1013.0
20260904175617 54 155 1.0 6.0 0.00 0.79 0.74 93 1013.0
20260904175017 54 155 1.0 6.0 0.00 0.79 0.74 93 1013.1
20260904174203 53 163 3.0 7.0 0.00 0.79 0.74 93 1013.1
20260904173603 53 167 4.0 12.0 0.00 0.79 0.74 93 1013.0
20260904173217 53 164 4.0 12.0 0.00 0.79 0.74 93 1013.0
20260904172403 54 165 2.0 12.0 0.00 0.79 0.74 95 1012.9
20260904171803 53 148 3.0 10.0 0.01 0.79 0.74 94 1012.8
20260904171418 53 149 3.0 10.0 0.02 0.79 0.74 94 1012.7
20260904170604 53 166 3.0 9.0 0.06 0.79 0.74 94 1012.7
20260904170003 53 166 2.0 7.0 0.06 0.79 0.74 95 1012.7
20260904165403 53 178 2.0 6.0 0.06 0.79 0.74 94 1012.6
20260904164803 53 171 3.0 9.0 0.06 0.79 0.74 94 1012.6
20260904164418 53 164 4.0 10.0 0.06 0.79 0.74 94 1012.6
20260904163603 53 165 4.0 12.0 0.06 0.79 0.74 94 1012.5
20260904163003 53 154 3.0 10.0 0.06 0.79 0.74 94 1012.4
20260904162403 53 158 4.0 10.0 0.06 0.79 0.74 94 1012.3
20260904161804 53 157 2.0 10.0 0.05 0.78 0.73 95 1012.1
20260904161203 53 159 2.0 7.0 0.03 0.76 0.71 95 1012.2
20260904160603 53 174 3.0 7.0 0.01 0.74 0.68 95 1012.2
20260904160004 53 171 2.0 7.0 0.02 0.74 0.68 95 1012.2
20260904155618 53 168 3.0 8.0 0.03 0.74 0.68 95 1012.3
20260904154803 53 165 4.0 9.0 0.03 0.74 0.68 95 1012.1
20260904154203 53 158 4.0 10.0 0.05 0.74 0.68 95 1012.0
20260904153603 53 156 4.0 10.0 0.06 0.74 0.68 94 1012.1